User: anonymous   Login
Location: Unspecified
(0.0000°N, 0.0000°E)
Time: 07:21:16
(UTC+00:00)
Language:

Max Valier Satellite - Orbit

View from above orbital plane
View from above orbital plane
View from above satellite
View from above satellite

Ground track
Ground track

The orbit data is extracted from the following two-line orbital elements,

1 42778U 17036P   18203.56665655 +.00000871 +00000-0 +41889-4 0  9993
2 42778 097.4010 262.6889 0011189 311.0095 049.0172 15.21381161059883
Epoch (UTC): 22 July 2018 13:35:59
Eccentricity: 0.0011189
inclination: 97.4010°
perigee height: 494 km
apogee height: 509 km
right ascension of ascending node: 262.6889°
argument of perigee: 311.0095°
revolutions per day: 15.21381161
mean anomaly at epoch: 49.0172°
orbit number at epoch: 5988

The dashed part of the orbit path shows where the satellite is in the earth's shadow,  

DLR